| time (UTC) | temp C | wind direction | speed KPH | gust KPH | rain 1hr cm | rain 24hr cm | rain mn cm | humidity % | barometer mb |
| 20260504035019 | 18 | 254 | 4.8 | 8.0 | 0.00 | 0.00 | 0.00 | 40 | 992.9 |
| 20260504032020 | 18 | 278 | 6.4 | 9.7 | 0.00 | 0.00 | 0.00 | 39 | 993.6 |
| 20260504030020 | 18 | 196 | 11.3 | 16.1 | 0.00 | 0.00 | 0.00 | 40 | 992.5 |
| 20260504024017 | 18 | 193 | 8.0 | 14.5 | 0.00 | 0.00 | 0.00 | 40 | 993.1 |
| 20260504023020 | 18 | 172 | 9.7 | 12.9 | 0.00 | 0.00 | 0.00 | 39 | 993.2 |
| 20260504020018 | 20 | 179 | 6.4 | 11.3 | 0.00 | 0.00 | 0.00 | 36 | 994.1 |
| 20260504015018 | 20 | 177 | 6.4 | 11.3 | 0.00 | 0.00 | 0.00 | 36 | 994.3 |
| 20260504013018 | 21 | 211 | 8.0 | 14.5 | 0.00 | 0.00 | 0.00 | 35 | 995.0 |
| 20260504012018 | 21 | 250 | 6.4 | 14.5 | 0.00 | 0.00 | 0.00 | 34 | 995.2 |
| 20260504010019 | 22 | 227 | 8.0 | 14.5 | 0.00 | 0.00 | 0.00 | 31 | 995.9 |
| 20260504004019 | 22 | 231 | 11.3 | 17.7 | 0.00 | 0.00 | 0.00 | 31 | 996.5 |
| 20260504003020 | 22 | 246 | 14.5 | 19.3 | 0.00 | 0.00 | 0.00 | 30 | 996.7 |
| 20260504002024 | 22 | 236 | 16.1 | 22.5 | 0.00 | 0.00 | 0.00 | 29 | 996.9 |
| 20260504001017 | 22 | 240 | 11.3 | 19.3 | 0.00 | 0.00 | 0.00 | 29 | 997.2 |
| 20260504000019 | 22 | 236 | 14.5 | 22.5 | 0.00 | 0.00 | 0.00 | 30 | 997.4 |
| 20260503234022 | 22 | 239 | 16.1 | 20.9 | 0.00 | 0.00 | 0.00 | 29 | 997.8 |
| 20260503233017 | 22 | 249 | 17.7 | 22.5 | 0.00 | 0.00 | 0.00 | 29 | 998.1 |
| 20260503232017 | 23 | 251 | 14.5 | 22.5 | 0.00 | 0.00 | 0.00 | 30 | 998.3 |
| 20260503231020 | 23 | 237 | 19.3 | 32.2 | 0.00 | 0.00 | 0.00 | 29 | 998.6 |
| 20260503223018 | 22 | 238 | 9.7 | 14.5 | 0.00 | 0.00 | 0.00 | 31 | 999.3 |
| 20260503222019 | 22 | 249 | 12.9 | 19.3 | 0.00 | 0.00 | 0.00 | 31 | 999.7 |
| 20260503221039 | 22 | 233 | 14.5 | 24.1 | 0.00 | 0.00 | 0.00 | 31 | 999.8 |
| 20260503220019 | 22 | 239 | 16.1 | 24.1 | 0.00 | 0.00 | 0.00 | 31 | 1000.3 |
| 20260503215040 | 22 | 234 | 11.3 | 19.3 | 0.00 | 0.00 | 0.00 | 31 | 1000.4 |
| 20260503212020 | 22 | 246 | 14.5 | 19.3 | 0.00 | 0.00 | 0.00 | 32 | 1001.2 |
| 20260503211020 | 22 | 215 | 16.1 | 20.9 | 0.00 | 0.00 | 0.00 | 32 | 1001.4 |
| 20260503210020 | 22 | 268 | 11.3 | 14.5 | 0.00 | 0.00 | 0.00 | 32 | 1001.9 |
| 20260503205017 | 22 | 216 | 12.9 | 22.5 | 0.00 | 0.00 | 0.00 | 32 | 1002.3 |
| 20260503204017 | 21 | 238 | 11.3 | 17.7 | 0.00 | 0.00 | 0.00 | 33 | 1002.5 |
| 20260503203045 | 21 | 234 | 12.9 | 19.3 | 0.00 | 0.00 | 0.00 | 33 | 1002.8 |
| 20260503195018 | 20 | 249 | 12.9 | 16.1 | 0.00 | 0.00 | 0.00 | 33 | 1003.7 |
| 20260503194021 | 21 | 255 | 12.9 | 16.1 | 0.00 | 0.00 | 0.00 | 33 | 1003.9 |
| 20260503192018 | 20 | 246 | 16.1 | 20.9 | 0.00 | 0.00 | 0.00 | 34 | 1004.2 |
| 20260503191019 | 20 | 257 | 12.9 | 17.7 | 0.00 | 0.00 | 0.00 | 36 | 1004.4 |
| 20260503185020 | 20 | 272 | 11.3 | 16.1 | 0.00 | 0.00 | 0.00 | 36 | 1005.2 |
| 20260503184019 | 20 | 246 | 8.0 | 14.5 | 0.00 | 0.00 | 0.00 | 36 | 1005.5 |
| 20260503183019 | 19 | 259 | 6.4 | 9.7 | 0.00 | 0.00 | 0.00 | 36 | 1005.8 |
| 20260503182020 | 18 | 241 | 11.3 | 17.7 | 0.00 | 0.00 | 0.00 | 37 | 1006.1 |
| 20260503181020 | 18 | 297 | 9.7 | 14.5 | 0.00 | 0.00 | 0.00 | 37 | 1006.6 |
| 20260503180017 | 18 | 302 | 6.4 | 11.3 | 0.00 | 0.00 | 0.00 | 38 | 1006.6 |
| 20260503175017 | 18 | 277 | 8.0 | 11.3 | 0.00 | 0.00 | 0.00 | 38 | 1006.9 |
| 20260503174020 | 18 | 264 | 9.7 | 14.5 | 0.00 | 0.00 | 0.00 | 37 | 1007.1 |
| 20260503131018 | 7 | 264 | 3.2 | 6.4 | 0.00 | 0.00 | 0.00 | 55 | 1010.4 |
| 20260503072018 | 8 | 10 | 8.0 | 16.1 | 0.00 | 0.00 | 0.00 | 58 | 1009.1 |
| 20260503071039 | 8 | 336 | 9.7 | 14.5 | 0.00 | 0.00 | 0.00 | 60 | 1009.0 |
| 20260503054017 | 11 | 13 | 8.0 | 12.9 | 0.00 | 0.00 | 0.00 | 62 | 1008.8 |
| 20260503053040 | 11 | 8 | 9.7 | 14.5 | 0.00 | 0.00 | 0.00 | 62 | 1008.7 |
| 20260503045018 | 12 | 10 | 9.7 | 16.1 | 0.00 | 0.00 | 0.00 | 59 | 1008.6 |
| 20260503043023 | 12 | 18 | 8.0 | 12.9 | 0.00 | 0.00 | 0.00 | 58 | 1008.4 |
| 20260503042039 | 12 | 23 | 8.0 | 12.9 | 0.00 | 0.00 | 0.00 | 59 | 1008.4 |
| 20260503041018 | 12 | 4 | 6.4 | 9.7 | 0.00 | 0.00 | 0.00 | 63 | 1008.4 |